Ellsworth AFB, SD

3:29 AM MST on January 22, 2017 (GMT -0700)
Ellsworth Air Force Base

Weather History for KRCA - April, 2014

Change the Weather History Date:

Saturday, April 5, 2014

  Actual Average Record
Temperature  
Mean Temperature 43 °F -  
Max Temperature 58 °F 49 °F 80 °F (2006)
Min Temperature 28 °F 28 °F 18 °F (2007)
Degree Days  
Heating Degree Days 22    
Moisture  
Dew Point 30 °F    
Average Humidity 57    
Maximum Humidity 89    
Minimum Humidity 28    
Precipitation  
Precipitation 0.00 in - - ()
Sea Level Pressure  
Sea Level Pressure 29.85 in    
Wind  
Wind Speed 10 mph (NNW)    
Max Wind Speed 22 mph    
Max Gust Speed 24 mph    
Visibility 10 miles    
Events Rain    
Averages and records for this station are not official NWS values.
T = Trace of Precipitation, MM = Missing Value Source: NWS Daily Summary

Daily Weather History Graph

Daily Weather History Graph

Search for Another Location

Airport or City:

Trip Planner

Search our weather history database for the weather conditions in past years. The results will help you decide how hot, cold, wet, or windy it might be!

Date:

Astronomy

Apr. 05, 2014 Rise Set
Actual Time 6:26 AM MDT 7:24 PM MDT
Civil Twilight 5:56 AM MDT 7:54 PM MDT
Nautical Twilight 5:21 AM MDT 8:29 PM MDT
Astronomical Twilight 4:45 AM MDT 9:06 PM MDT
Moon 10:28 AM MDT (4/5) 12:43 AM MDT (4/5)
Length of Visible Light 13h 57m
Length of Day
12h 58m
Waxing Crescent, 35% of the Moon is Illuminated
Apr 5
Waxing Crescent
Apr 7
First Quarter
Apr 15
Full
Apr 22
Last Quarter
Apr 29
New

Hourly Weather History & Observations

Time (MDT) Temp. Windchill Dew Point Humidity Pressure Visibility Wind Dir Wind Speed Gust Speed Precip Events Conditions
12:58 AM 38.7 °F 33.6 °F 25.9 °F 60% 29.85 in 10.0 mi South 6.9 mph - N/A   Clear
1:58 AM 37.0 °F 31.6 °F 25.7 °F 64% 29.83 in 10.0 mi South 6.9 mph - N/A   Clear
2:58 AM 32.0 °F 28.7 °F 24.4 °F 74% 29.82 in 10.0 mi SW 3.5 mph - N/A   Clear
3:58 AM 29.3 °F 20.8 °F 24.4 °F 82% 29.82 in 10.0 mi WSW 9.2 mph - N/A   Clear
4:58 AM 28.0 °F 21.7 °F 23.2 °F 82% 29.80 in 10.0 mi WNW 5.8 mph - N/A   Clear
5:58 AM 37.8 °F 29.4 °F 25.9 °F 62% 29.79 in 10.0 mi North 13.8 mph - N/A   Clear
6:58 AM 31.1 °F 23.7 °F 24.1 °F 75% 29.83 in 10.0 mi WNW 8.1 mph - N/A   Clear
7:58 AM 39.7 °F 36.5 °F 28.0 °F 63% 29.83 in 10.0 mi WNW 4.6 mph - N/A   Clear
8:58 AM 51.4 °F - 25.9 °F 37% 29.81 in 10.0 mi NW 8.1 mph - N/A   Clear
9:58 AM 53.6 °F - 23.0 °F 30% 29.83 in 10.0 mi NNW 18.4 mph - N/A   Clear
10:58 AM 54.7 °F - 23.7 °F 30% 29.83 in 10.0 mi NNW 20.7 mph - N/A   Clear
11:58 AM 56.8 °F - 24.3 °F 28% 29.84 in 10.0 mi North 18.4 mph - N/A   Clear
12:58 PM 57.7 °F - 24.3 °F 28% 29.83 in 10.0 mi North 16.1 mph - N/A   Clear
1:58 PM 58.6 °F - 27.0 °F 30% 29.83 in 10.0 mi North 21.9 mph 24.2 mph N/A   Clear
2:58 PM 57.6 °F - 30.4 °F 36% 29.85 in 10.0 mi North 18.4 mph - N/A   Overcast
3:58 PM 56.5 °F - 30.2 °F 37% 29.86 in 10.0 mi North 13.8 mph - N/A   Scattered Clouds
4:58 PM 55.8 °F - 33.4 °F 43% 29.88 in 10.0 mi North 13.8 mph - N/A   Mostly Cloudy
5:58 PM 52.7 °F - 33.3 °F 48% 29.89 in 10.0 mi North 11.5 mph - N/A   Overcast
6:32 PM 50.0 °F - 33.8 °F 54% 29.86 in 9.0 mi NW 18.4 mph 23.0 mph N/A   Overcast
6:33 PM 50.0 °F - 35.6 °F 58% 29.85 in 8.0 mi NW 17.3 mph 24.2 mph N/A Rain Light Rain
6:43 PM 50.0 °F - 35.6 °F 58% 29.86 in 8.0 mi NNW 5.8 mph 24.2 mph N/A Rain Light Rain
6:48 PM 48.2 °F - 35.6 °F 62% 29.86 in 10.0 mi NW 6.9 mph - N/A Rain Light Rain
6:53 PM 50.0 °F - 32.0 °F 50% 29.86 in 9.0 mi Variable 4.6 mph - N/A Rain Light Rain
6:58 PM 49.3 °F - 32.9 °F 53% 29.91 in 8.0 mi Variable 3.5 mph - 0.00 in Rain Light Rain
7:08 PM 50.0 °F - 35.6 °F 58% 29.85 in 10.0 mi NNE 13.8 mph 18.4 mph N/A Rain Light Rain
7:16 PM 48.2 °F - 35.6 °F 62% 29.86 in 10.0 mi NNE 11.5 mph - N/A   Mostly Cloudy
7:58 PM 44.8 °F 38.3 °F 37.2 °F 75% 29.91 in 10.0 mi North 13.8 mph - 0.00 in   Partly Cloudy
8:58 PM 39.4 °F 36.1 °F 33.6 °F 80% 29.92 in 10.0 mi West 4.6 mph - N/A   Clear
9:58 PM 35.2 °F 29.5 °F 32.2 °F 89% 29.93 in 10.0 mi WNW 6.9 mph - N/A   Clear
10:58 PM 35.1 °F 32.2 °F 30.7 °F 84% 29.91 in 10.0 mi North 3.5 mph - N/A   Clear
11:58 PM 37.6 °F - 32.0 °F 80% 29.90 in 10.0 mi Calm Calm - N/A   Clear